Location: Ponte Samoggia
(44.5667°N, 11.1333°E)
Time: 23:15:58
(UTC+00:00)

USA 307 - Pass Details

Date: 26 May 2022
Orbit: 552 x 554 km, 54.0° (Epoch: 17 June)

Event Time Altitude Azimuth Distance (km) Brightness Sun altitude
Exits shadow 00:12:06 69° 101° (ESE) 598 2.9 -22.9°
Drops below altitude 10° 00:15:57 10° 57° (ENE) 1,843 6.1 -22.8°
Sets 00:18:12 0° 56° (NE) 2,741 7.2 -22.6°
